Location: Ellerstadt
(49.4644°N, 8.2615°E)
Time: 20:45:28
(UTC+00:00)

Vanguard 1 - Pass Details

Date: 13 June 2021
Orbit: 651 x 3831 km, 34.2° (Epoch: 29 July)

Event Time Altitude Azimuth Distance (km) Brightness Sun altitude
Rises 00:11:17 0° 247° (WSW) 7,360 14.2 -16.7°
Reaches altitude 10° 00:17:15 10° 241° (WSW) 5,908 13.6 -16.5°
Maximum altitude 00:31:29 38° 183° (S) 2,852 11.9 -15.9°
Drops below altitude 10° 00:39:53 10° 119° (ESE) 3,507 12.8 -15.5°
Sets 00:42:28 0° 110° (ESE) 4,168 13.3 -15.4°
